Wind_Speed
11 10 10 12 14 15 16 17 16 17 18 18 18 17 16 15 13 11 11 11 10 10 9 9 9 10 10 10 9 9 9 9 9 8 8 8 8 9 9 10 10 10 10 10 9 8 7 6 4 3 2 3 3 3 6 5 5 4 3 2 3 2
10 11 9 10 12 13 15 16 16 16 17 18 17 15 14 13 11 10 10 10 10 9 9 9 9 9 10 9 9 9 9 9 8 8 7 7 7 8 9 10 10 10 10 10 9 7 6 6 5 4 3 4 3 5 6 6 5 4 4 3 3 3
10 11 10 9 10 11 13 14 14 13 14 16 15 14 12 11 11 10 9 9 9 8 8 8 8 10 10 9 9 8 8 8 8 7 8 7 7 7 8 9 9 9 9 9 8 7 7 6 5 5 4 4 4 5 6 6 5 5 4 3 3 3
10 10 11 10 10 10 11 13 13 12 12 13 13 12 11 10 10 10 10 10 8 7 7 6 7 9 9 8 9 9 8 8 8 7 8 8 8 8 8 9 10 9 8 8 8 8 8 7 6 4 4 5 5 5 6 7 5 5 4 3 3 3
10 10 10 10 10 10 10 10 11 11 11 11 11 12 11 11 10 9 10 9 8 7 6 6 6 7 7 7 8 9 9 8 8 8 8 8 8 8 8 9 10 10 9 9 9 8 7 7 7 5 4 5 5 5 7 7 5 5 4 4 4 4
9 9 9 9 9 10 10 9 9 9 10 10 10 11 11 10 10 10 9 8 8 8 6 6 6 7 7 8 8 8 9 8 8 8 9 9 8 8 8 8 9 9 9 9 9 8 7 6 6 6 5 5 5 5 7 7 6 5 4 4 4 4
9 9 8 8 8 9 9 9 9 9 9 9 9 9 10 10 10 10 10 9 9 8 7 6 6 7 8 9 9 8 8 8 9 9 9 8 8 8 8 7 8 8 8 8 8 9 8 7 6 6 6 5 5 6 7 8 6 5 5 5 5 4
9 9 8 7 7 7 7 8 9 9 9 8 8 8 9 9 9 10 11 10 9 8 8 7 7 9 10 9 8 7 8 8 8 8 8 8 8 8 7 7 7 7 8 8 9 9 10 9 7 7 7 6 6 7 8 8 7 6 5 5 5 4
8 8 7 7 7 6 7 8 8 8 7 7 8 7 7 8 8 10 11 10 8 8 8 8 9 10 9 7 6 7 9 9 9 8 8 8 8 7 7 7 7 7 8 8 9 10 10 11 9 8 8 8 8 7 8 8 7 6 5 5 4 4
7 6 6 5 5 5 5 6 7 7 7 7 6 6 6 7 8 8 8 9 9 9 9 10 12 11 7 6 7 8 8 8 9 10 10 8 7 7 7 6 6 7 9 9 9 10 11 12 11 10 9 9 9 8 7 8 8 7 6 5 5 5
7 6 5 4 4 3 3 4 5 5 6 6 5 6 6 6 7 7 8 11 11 11 12 12 13 11 8 7 7 7 6 7 8 9 11 10 8 8 8 7 6 7 8 9 9 9 10 12 13 12 10 10 10 9 8 8 8 8 7 6 6 6
7 6 5 4 4 3 3 3 3 3 4 5 5 5 6 6 6 6 8 10 9 7 9 12 12 9 6 7 9 9 8 8 8 8 12 13 10 9 8 8 7 8 8 8 10 10 9 10 12 12 11 11 11 11 10 9 9 9 8 7 7 6
7 6 5 5 4 3 3 3 3 3 3 4 4 4 5 5 5 5 5 5 5 4 5 9 10 8 5 6 10 11 8 8 9 12 15 15 12 10 9 8 8 10 10 10 11 11 9 9 11 11 11 11 12 12 12 11 10 10 9 8 8 7
7 7 6 5 4 3 3 3 3 3 3 3 2 3 4 4 4 4 4 4 4 5 7 7 6 6 5 6 8 8 7 7 9 12 15 15 14 11 11 11 10 11 12 11 12 12 10 9 10 10 11 11 12 12 12 12 11 11 10 10 9 9
8 7 5 4 4 4 4 3 3 3 3 3 2 2 3 4 3 4 4 4 3 4 7 7 6 5 6 6 7 7 6 7 9 10 11 13 15 13 12 12 11 11 12 12 12 12 12 10 8 9 10 10 11 11 12 12 12 12 12 11 10 10
8 7 6 5 5 4 3 3 3 3 4 4 2 2 2 3 3 3 4 4 4 3 2 5 6 8 8 7 7 6 7 8 8 8 8 11 15 15 13 12 11 10 11 12 12 12 13 13 10 8 8 8 10 11 12 13 13 13 13 12 11 11
8 8 7 7 6 5 5 4 4 5 5 4 3 2 3 3 3 4 4 5 5 4 3 4 4 7 8 8 7 5 6 7 7 7 7 9 13 14 12 12 12 11 10 11 11 11 11 12 12 11 9 9 9 10 12 13 13 13 13 13 12 12
9 8 8 8 8 7 7 6 5 5 5 4 3 3 3 4 4 4 3 4 4 4 3 3 3 3 5 6 6 6 5 5 6 6 6 7 10 12 13 12 12 12 11 10 10 10 10 9 10 11 11 11 10 9 10 12 12 12 13 13 13 13
9 9 9 9 9 8 7 6 5 5 5 4 4 4 4 4 4 4 4 4 3 3 3 3 3 3 3 4 4 5 5 5 5 5 5 6 7 9 12 13 13 11 11 11 10 9 9 9 8 9 10 11 11 11 10 10 10 12 13 13 13 13
10 10 10 10 9 8 7 6 5 5 4 4 4 5 4 4 5 4 4 4 3 3 3 3 3 3 3 3 2 3 4 4 5 5 6 6 6 7 9 12 13 12 11 11 10 10 10 10 9 10 10 11 13 13 11 10 11 12 13 13 13 13
12 12 11 10 9 8 7 6 5 5 5 5 6 6 5 5 5 5 5 4 4 4 3 3 3 3 3 2 1 1 1 2 3 5 5 5 5 6 7 9 10 12 13 13 12 12 12 9 7 8 10 10 12 14 13 11 12 13 14 13 13 14
13 13 11 10 9 7 6 5 5 5 5 6 6 5 6 6 5 5 5 5 5 4 4 3 3 3 3 2 2 2 2 2 1 1 2 3 3 4 5 6 7 10 12 12 12 13 12 9 6 5 5 4 6 11 13 11 11 12 13 13 13 14
14 14 12 10 9 7 6 5 5 6 5 5 5 5 6 6 6 6 6 5 5 5 4 4 4 4 4 3 3 3 4 4 4 4 3 3 3 2 2 3 4 6 7 8 8 9 11 10 7 4 2 2 1 4 7 9 11 9 8 11 12 13
15 14 12 12 9 8 8 7 6 7 6 5 6 6 6 6 6 6 6 5 5 5 5 5 5 5 5 4 4 4 4 4 5 4 4 4 5 4 3 3 2 2 3 5 5 6 8 9 8 6 3 2 2 2 1 4 9 8 5 7 9 11
15 15 13 13 12 10 11 10 8 8 7 6 6 7 6 7 6 6 6 5 6 6 6 6 6 6 6 5 5 4 4 4 4 3 3 3 3 3 3 3 3 2 1 2 3 4 5 4 6 8 5 2 2 2 1 2 4 5 5 7 7 9
15 15 14 15 15 12 11 12 11 10 9 8 7 7 6 7 6 6 6 6 7 7 7 7 6 6 6 5 5 5 4 4 4 3 3 2 3 3 3 3 2 2 2 1 2 3 3 3 2 4 5 3 2 1 2 3 2 2 3 5 6 9
16 15 15 16 16 13 12 12 12 11 10 9 8 7 7 7 7 6 7 7 7 7 7 7 6 6 5 5 5 5 5 5 4 4 4 3 3 3 3 3 3 3 3 2 0 2 3 2 1 1 0 2 2 1 1 1 1 1 2 3 7 10
17 15 16 18 18 15 13 13 12 10 9 8 7 8 8 8 7 7 7 7 7 7 7 6 6 5 5 5 5 6 6 6 6 6 5 5 5 4 4 4 5 4 3 3 2 1 2 1 1 2 2 3 2 2 3 0 1 1 2 2 5 6
18 16 17 19 19 16 13 13 12 11 10 8 7 8 9 8 8 8 7 7 7 7 7 6 6 6 6 7 7 8 8 7 7 6 6 6 6 5 5 5 5 5 4 4 4 2 1 1 1 1 1 2 2 2 3 1 1 2 3 2 2 2
20 17 17 21 21 17 15 13 13 12 11 10 8 7 8 9 9 8 8 8 7 7 7 7 7 7 8 8 8 8 8 7 7 6 6 7 6 6 6 6 6 6 6 5 5 4 3 2 1 1 1 2 3 3 4 3 2 4 5 5 4 3
21 19 18 21 22 19 17 15 13 13 13 12 10 8 8 9 9 9 8 8 7 7 7 7 8 8 8 8 8 7 7 7 7 6 6 6 6 6 6 6 6 6 6 6 5 5 5 4 3 2 2 1 1 1 2 3 3 4 5 5 5 5
21 20 18 21 23 20 18 17 15 14 14 13 12 11 10 10 10 10 9 9 8 8 8 8 8 8 8 8 7 7 7 6 6 6 6 6 6 6 6 6 6 6 6 6 6 5 5 4 3 3 3 2 2 2 1 1 2 4 5 5 5 5
22 21 19 20 23 21 19 18 16 15 14 14 13 12 11 10 11 10 10 10 9 9 9 9 9 9 9 9 8 7 6 5 6 6 6 6 6 6 6 6 6 6 6 6 6 6 6 5 4 3 3 2 2 2 1 1 1 3 4 5 5 6
21 21 20 20 21 21 20 20 18 16 15 14 13 14 12 11 11 11 10 10 10 9 9 10 10 10 10 10 8 7 7 6 6 7 6 6 6 5 5 5 6 6 6 6 6 7 6 6 5 4 3 3 2 2 1 1 1 2 3 4 5 6
20 20 20 20 21 21 21 20 18 17 15 14 13 13 13 12 11 11 10 10 11 10 9 9 10 10 11 11 9 9 8 7 7 7 7 6 6 5 5 5 5 6 6 6 6 6 6 6 5 5 4 3 2 2 2 1 1 2 2 3 4 5
17 17 17 19 19 20 20 19 18 17 16 15 14 13 13 12 12 12 11 11 11 11 10 9 10 11 12 11 10 10 9 8 8 7 7 6 6 6 5 5 5 5 5 5 6 5 5 5 5 4 4 3 2 2 2 2 2 2 2 2 3 4
15 14 15 17 17 17 17 17 17 18 18 17 16 16 14 13 13 13 13 12 11 11 11 10 10 12 13 12 11 11 10 9 9 8 8 7 6 6 6 5 5 5 5 5 5 5 4 4 4 3 3 2 1 1 2 2 2 2 3 3 4 4
Wind_Direction
148 154 155 158 166 172 185 186 183 189 189 186 186 184 184 186 185 183 182 185 184 178 176 181 184 185 187 179 175 176 169 171 175 180 188 186 187 193 195 194 194 199 204 209 214 218 228 227 221 250 285 315 312 184 180 181 178 169 165 154 128 194
148 147 150 155 160 170 184 183 181 189 192 190 189 187 184 186 186 183 185 188 187 189 190 190 189 191 191 179 180 184 174 173 174 178 187 191 194 194 194 194 196 201 209 217 219 217 227 231 231 241 260 286 265 195 187 178 176 175 172 153 156 235
150 146 150 151 154 165 173 176 176 181 190 192 192 189 183 188 192 187 189 193 196 205 205 198 193 191 188 179 184 190 181 179 177 178 185 194 200 198 197 199 201 201 204 213 218 217 219 224 232 238 248 253 221 200 192 182 180 177 179 158 176 248
157 153 154 151 155 161 162 168 172 174 182 188 191 191 190 197 203 198 196 197 200 208 213 214 202 193 186 175 184 191 188 188 186 185 189 193 200 203 203 203 205 202 197 202 212 222 223 221 224 225 233 232 215 210 196 188 188 179 178 156 185 255
163 164 162 155 155 156 157 160 162 170 177 181 188 194 197 200 206 208 204 199 198 203 214 222 206 192 185 180 190 191 190 192 193 198 201 199 202 205 202 197 198 198 201 209 214 219 221 222 222 220 228 226 220 215 198 192 193 185 177 169 214 245
171 170 169 164 158 153 155 156 159 170 174 180 185 190 199 203 204 206 206 200 193 195 206 217 204 195 195 195 196 192 192 193 195 203 208 210 209 206 204 201 199 197 205 216 220 220 220 220 220 221 225 225 222 216 205 197 193 192 184 180 224 243
175 174 174 174 166 155 156 160 167 173 176 183 186 189 200 207 206 202 204 203 193 192 200 211 208 207 209 205 202 199 199 200 201 205 207 212 217 215 215 215 212 204 201 209 218 223 223 219 218 221 222 223 222 217 211 204 198 198 192 186 226 249
178 179 183 187 181 165 160 164 169 175 180 185 187 194 199 201 204 201 203 204 196 193 200 208 210 214 215 209 207 206 206 205 205 209 207 211 218 222 225 224 218 209 200 205 214 222 225 222 220 221 220 221 220 219 214 210 208 204 200 194 217 248
184 187 191 195 195 182 172 169 169 176 183 183 184 192 194 195 200 202 203 204 200 199 204 210 215 218 217 209 208 213 216 211 206 209 208 212 218 216 221 225 221 212 201 204 213 220 226 224 220 219 220 223 220 220 217 212 212 209 209 202 206 244
180 184 185 188 196 190 186 182 175 176 179 181 183 181 180 187 197 204 205 205 205 207 207 211 219 221 215 209 217 224 226 220 216 218 216 216 221 218 219 218 217 216 207 206 214 220 224 224 222 220 220 222 220 217 215 212 213 212 214 214 207 230
169 168 172 180 186 186 194 200 190 183 175 176 181 172 169 183 195 197 201 206 207 210 211 212 221 225 223 219 224 230 226 223 226 227 224 219 221 222 218 210 211 222 217 209 212 218 224 225 222 220 219 221 222 219 214 214 216 216 218 224 218 221
164 165 171 177 174 180 191 202 207 201 179 167 168 172 168 173 188 190 201 210 205 209 222 227 232 233 231 230 235 239 230 225 224 227 227 220 217 220 214 206 207 218 216 203 204 211 221 226 223 221 219 217 221 223 218 216 220 222 223 228 229 225
167 175 180 176 167 177 190 192 193 196 185 166 168 184 173 166 171 165 178 195 182 184 211 227 242 243 230 230 239 243 237 231 227 232 235 225 218 217 212 207 203 204 203 199 201 204 210 222 225 224 223 221 221 224 224 222 224 228 228 230 234 233
177 183 181 175 166 174 183 184 183 179 177 168 183 192 178 179 185 179 191 198 189 216 218 212 235 247 229 226 239 241 233 234 231 233 237 228 218 212 210 207 202 199 196 197 200 198 200 213 225 226 225 226 225 226 229 229 228 229 231 233 235 237
183 186 178 175 175 177 173 173 176 165 152 141 157 169 160 181 198 198 210 209 189 225 238 221 220 234 225 222 238 241 232 236 231 227 229 224 216 210 209 207 205 201 193 196 198 195 198 207 222 225 222 226 229 229 230 232 232 231 232 232 236 237
182 183 179 181 177 171 161 156 150 134 125 118 126 135 128 149 160 158 157 156 157 160 226 221 223 232 230 224 230 237 235 233 228 222 218 213 210 209 211 210 210 207 197 199 200 196 200 207 218 225 225 226 231 234 235 234 233 234 234 233 235 235
181 181 181 178 171 168 159 149 135 123 120 116 117 119 117 119 120 134 135 127 130 131 160 199 218 232 236 234 225 228 235 230 222 218 212 208 210 210 212 212 212 210 205 204 202 198 202 208 216 225 234 234 234 237 240 241 238 238 236 233 235 234
180 181 180 174 168 164 154 143 133 124 120 119 117 113 117 124 120 118 116 112 115 126 148 170 185 215 236 239 227 227 238 231 219 213 208 210 214 214 214 214 214 212 211 213 210 207 209 213 217 224 234 238 240 242 244 244 242 241 238 231 231 232
177 179 177 173 166 160 155 148 142 138 129 127 128 126 127 123 116 106 100 99 106 125 135 143 166 198 228 239 234 234 242 242 233 219 207 211 214 214 214 214 215 215 216 220 221 218 219 224 228 229 234 240 244 248 250 248 242 237 236 233 229 229
177 178 175 173 172 170 168 163 158 156 145 140 133 125 123 114 106 101 101 105 108 121 136 147 170 185 206 228 237 236 239 240 240 231 220 224 222 212 214 217 217 217 220 221 219 221 225 230 238 242 244 247 249 250 250 249 245 236 231 232 232 231
179 181 179 179 179 180 178 171 169 164 150 145 140 131 124 112 104 99 97 102 102 110 127 141 158 172 186 200 201 208 216 222 228 230 228 228 225 217 218 222 219 218 224 223 216 219 224 226 237 246 250 253 253 255 257 250 243 240 234 231 233 234
180 184 186 185 182 181 180 174 166 159 148 141 137 134 127 118 111 106 101 98 98 103 116 126 132 146 159 162 152 120 103 98 115 173 195 183 196 209 212 216 215 219 226 229 227 223 218 213 219 235 248 264 262 258 264 265 251 240 236 233 232 234
183 184 187 190 187 179 173 163 151 146 141 136 129 120 118 119 119 114 109 103 102 105 107 118 125 131 138 133 125 112 101 81 74 77 81 95 101 118 150 175 205 219 219 218 224 224 218 216 214 204 219 254 265 251 266 281 266 244 232 235 234 235
184 184 186 190 186 175 170 161 146 141 133 129 130 126 123 125 127 122 115 107 109 115 111 112 118 123 126 123 115 109 105 90 81 79 73 70 67 71 77 87 133 195 209 201 197 208 221 222 212 198 200 208 171 187 233 267 258 252 249 249 244 239
185 184 186 188 184 176 173 165 152 148 142 135 139 145 146 140 138 132 121 113 116 123 119 113 114 116 118 118 113 106 106 103 96 94 91 85 74 63 57 61 77 90 152 200 167 174 199 209 213 215 214 195 172 213 196 192 243 257 254 252 256 252
185 186 186 189 189 181 175 169 163 162 160 159 159 160 158 150 147 136 121 119 121 124 124 120 117 116 116 116 113 108 107 106 104 101 95 97 92 74 68 58 44 65 78 66 141 145 146 152 198 218 218 232 250 230 132 145 211 265 241 235 241 253
185 186 186 190 191 185 182 178 173 171 167 168 165 156 152 147 143 133 124 125 126 128 130 127 124 121 121 120 115 114 110 107 107 104 97 93 89 78 73 64 53 62 67 43 106 127 110 134 117 81 265 320 322 281 265 159 203 265 273 242 230 243
187 187 186 191 191 187 189 185 178 176 171 172 164 150 149 145 142 137 131 129 130 133 135 134 134 129 126 125 119 115 112 108 105 102 98 91 84 79 72 65 63 66 66 56 59 95 85 81 42 49 35 14 13 273 258 300 34 289 283 285 236 238
188 189 188 193 193 190 194 190 182 178 172 172 163 152 155 151 148 146 140 137 133 134 137 135 135 131 126 124 120 115 111 106 101 95 94 91 85 82 76 71 69 64 67 71 71 80 92 52 7 11 347 338 334 276 242 184 27 305 274 275 253 241
189 191 191 195 195 192 195 195 189 182 175 173 168 164 164 158 157 157 152 149 144 140 139 136 135 133 128 125 121 117 112 105 100 95 95 96 93 89 84 79 78 75 74 75 75 75 75 78 75 25 309 293 284 279 263 238 271 302 283 266 267 278
191 192 193 196 197 194 196 198 196 189 181 177 175 176 177 170 169 169 166 164 160 154 148 146 144 140 137 133 126 121 115 108 105 101 100 101 100 97 96 90 86 84 82 81 81 82 79 78 80 68 38 4 347 324 301 281 276 291 289 278 278 279
192 194 194 196 198 197 197 200 201 196 189 184 180 183 188 186 180 179 179 176 170 165 161 159 158 155 153 149 140 133 126 116 110 107 105 104 104 104 104 101 96 92 89 90 89 88 87 84 82 72 59 45 41 44 21 324 289 281 287 295 293 283
192 194 195 197 198 199 200 202 203 201 197 192 189 190 193 194 192 190 189 185 180 178 175 173 173 171 168 164 159 152 143 131 121 117 113 109 108 110 111 108 107 103 98 97 95 95 92 87 84 81 73 69 59 59 67 43 303 283 288 290 284 278
194 195 196 197 199 201 203 204 205 205 201 198 197 196 198 199 199 200 198 193 191 189 186 184 184 182 178 174 171 165 157 146 135 129 124 121 117 116 118 116 114 112 107 104 101 98 94 89 83 77 77 79 75 66 59 36 284 271 280 279 277 284
196 195 197 199 200 203 205 207 207 208 206 204 203 202 204 205 202 205 206 201 199 199 197 193 190 186 182 180 178 173 166 156 148 143 135 132 130 126 125 123 121 120 116 114 113 106 98 94 86 78 74 74 76 71 44 10 329 289 282 273 274 284
198 197 198 202 204 206 207 208 209 210 210 208 208 207 207 207 204 205 209 208 207 205 203 198 191 186 183 184 183 178 173 167 160 155 149 146 143 139 140 138 133 132 129 127 126 121 115 107 100 91 79 69 76 68 34 3 345 329 317 291 275 271
197 197 199 204 209 211 211 212 212 213 213 213 213 213 211 209 206 206 209 213 213 209 205 201 191 185 184 187 187 183 181 176 170 166 162 158 156 152 152 151 148 145 142 142 137 130 127 120 116 114 99 82 86 75 32 3 344 337 327 308 295 280
Height
807 808 808 810 812 813 814 814 816 817 818 819 820 820 821 822 824 824 825 826 827 828 829 829 830 831 831 832 833 834 835 835 836 836 837 837 838 838 838 839 840 840 841 841 841 842 842 843 843 843 843 843 844 844 845 845 846 846 846 847 847 847
807 808 809 810 811 812 814 815 817 817 818 819 820 821 821 823 824 824 825 825 827 828 828 829 830 831 831 832 833 834 835 835 836 836 837 837 838 838 838 839 839 840 841 841 841 842 843 843 843 843 843 843 844 844 845 845 846 846 847 847 848 847
807 808 809 810 811 812 813 815 817 817 818 819 820 821 822 823 823 824 825 825 826 826 827 827 828 830 831 832 833 834 835 835 836 836 837 837 838 838 838 838 839 840 840 841 842 842 843 843 843 843 843 843 844 844 844 845 846 846 847 847 848 847
807 808 809 810 811 812 813 814 816 817 818 819 820 821 822 823 823 824 824 825 825 825 825 826 827 829 830 831 832 834 834 834 835 836 836 837 837 837 837 838 838 839 840 841 842 842 842 843 843 843 843 843 844 844 844 845 846 846 847 848 847 847
808 809 809 811 812 812 813 814 815 817 818 819 820 821 822 823 823 823 823 824 825 825 826 826 828 829 830 831 832 833 833 834 835 835 836 836 837 836 836 837 838 839 840 840 841 841 842 842 843 843 843 843 844 844 844 845 846 846 846 847 847 847
808 809 810 811 812 813 813 815 816 817 818 819 820 821 822 822 823 823 823 823 825 826 826 827 828 829 829 831 832 832 833 833 834 835 835 836 836 836 836 837 837 838 839 840 840 841 842 842 843 843 843 843 843 844 844 845 846 846 846 847 847 847
808 809 810 811 812 813 814 815 816 817 818 819 819 820 821 822 822 823 824 824 825 826 827 828 828 828 829 830 830 831 832 832 833 834 834 835 835 836 836 836 837 838 838 839 840 840 841 842 842 842 843 843 843 844 844 845 846 846 846 847 847 847
809 809 810 811 812 813 814 814 815 817 818 818 819 820 821 822 822 823 824 825 825 826 827 828 828 828 828 829 830 830 830 831 832 833 833 834 834 835 835 836 837 837 837 838 839 840 840 841 842 842 842 843 843 843 844 845 845 846 846 847 846 847
809 809 810 811 812 812 813 814 815 816 817 818 819 820 820 821 822 823 823 824 825 827 827 828 827 827 828 829 829 829 829 830 831 832 832 833 833 834 834 835 836 837 837 838 838 839 839 840 841 842 842 842 843 843 843 844 845 846 846 846 846 846
809 810 810 811 812 812 813 814 815 816 817 818 819 820 820 821 821 822 823 824 825 826 826 826 825 825 827 828 828 828 829 830 831 831 832 833 833 833 834 834 835 836 836 837 838 838 839 839 839 840 841 842 842 843 843 843 844 845 845 846 846 846
809 810 811 812 812 812 813 814 814 815 817 817 818 819 819 820 821 821 822 823 824 824 825 825 825 825 826 827 827 827 828 830 830 831 831 832 833 833 834 834 835 836 835 836 837 838 838 838 838 838 840 841 841 842 843 843 844 844 845 845 845 846
809 810 811 812 812 813 814 814 814 815 816 817 818 818 819 820 821 821 822 822 823 824 825 825 825 826 826 827 827 826 827 828 829 830 829 830 831 832 833 833 834 835 834 835 837 838 838 837 837 837 838 839 840 841 842 842 843 843 844 844 844 845
809 810 811 812 812 813 814 814 815 815 816 816 817 818 819 820 820 822 822 822 824 824 824 824 824 826 826 826 826 825 826 827 828 828 827 829 830 831 833 833 834 835 834 835 836 837 837 837 836 836 836 838 839 840 840 841 842 842 843 843 843 844
809 810 811 812 812 813 813 814 814 815 815 816 816 817 818 820 820 821 822 822 823 824 824 823 823 825 826 826 825 825 826 826 826 826 826 827 829 830 831 832 833 833 833 834 835 836 836 836 836 836 836 836 837 838 839 839 840 841 842 842 842 843
809 810 811 812 812 813 813 814 814 815 815 816 817 817 818 819 820 820 821 822 823 823 823 822 823 824 825 825 825 824 825 825 825 825 825 826 827 828 830 831 831 832 832 833 833 834 834 835 835 835 835 836 836 837 837 838 839 840 840 841 842 842
809 810 811 812 813 813 813 814 815 815 815 816 817 818 819 819 819 820 821 822 822 822 822 822 822 823 824 824 824 824 823 823 823 824 825 825 826 827 829 830 830 831 831 831 832 832 833 834 834 835 835 835 835 835 836 836 837 838 839 839 840 840
809 810 811 812 813 814 814 815 815 816 816 817 818 818 819 819 819 820 821 821 822 822 823 822 822 822 823 823 823 822 822 822 823 823 824 825 825 826 828 829 829 830 830 830 831 831 832 833 833 834 834 833 834 834 834 835 836 837 837 838 838 839
809 810 811 812 813 814 814 815 815 816 817 818 818 819 819 819 820 820 821 821 821 822 823 823 822 822 822 822 822 821 821 821 822 822 823 824 824 825 826 827 828 828 829 830 830 830 831 831 832 833 832 832 832 832 833 833 834 835 836 836 837 838
808 810 811 812 813 814 814 815 816 816 817 818 818 819 820 820 820 821 821 821 822 822 823 823 822 822 822 821 821 821 821 821 821 821 822 823 824 824 825 826 826 827 828 828 829 829 830 830 831 832 831 831 831 831 831 832 833 834 834 835 835 836
808 809 811 812 813 813 814 815 815 816 817 818 819 819 820 820 821 821 822 822 822 823 823 823 823 822 822 821 821 821 821 821 821 821 822 822 822 823 824 824 825 826 826 827 828 828 828 829 830 830 831 831 831 831 831 831 831 832 832 833 834 834
807 808 810 811 812 813 813 814 815 816 817 818 819 820 820 821 822 822 823 823 823 823 823 823 823 822 822 822 821 821 821 821 821 821 822 822 822 823 823 823 823 824 825 825 826 827 828 829 829 829 830 830 830 831 830 830 830 830 831 832 832 833
806 808 809 810 811 812 813 814 815 815 816 817 818 819 820 821 822 823 823 823 823 823 823 823 823 823 822 822 822 822 822 822 821 821 821 822 822 822 823 823 823 823 823 824 825 826 827 828 828 829 829 830 830 830 830 830 829 829 830 830 831 832
805 807 809 810 811 812 813 814 815 815 816 818 819 820 821 822 823 823 823 824 824 824 823 823 823 823 823 823 823 823 823 823 822 822 822 822 823 823 823 823 823 823 823 823 824 825 826 827 827 828 830 831 830 830 831 831 829 828 828 829 830 831
804 806 808 810 811 812 813 814 815 816 817 818 819 820 821 822 823 823 824 824 824 824 824 824 824 824 823 824 824 824 824 824 824 824 824 823 823 823 823 823 823 823 822 822 824 825 825 826 827 828 829 830 830 831 832 831 829 828 828 828 828 829
803 805 807 808 810 811 812 814 815 816 817 818 819 820 821 822 823 823 824 824 824 824 824 824 824 824 824 824 825 825 825 825 825 825 825 825 825 825 824 824 823 823 823 822 823 824 825 826 826 827 828 829 830 831 831 830 829 829 828 828 828 827
802 804 806 807 809 810 812 813 814 815 816 817 818 819 820 821 822 823 824 824 824 825 825 825 825 825 825 825 825 826 826 826 826 826 826 825 826 825 825 825 824 824 824 823 824 824 825 826 826 827 827 828 828 830 829 828 830 830 829 828 828 828
801 803 805 806 808 810 811 812 813 814 815 816 817 818 820 821 822 823 824 824 825 825 825 825 825 825 826 826 826 826 826 826 826 827 826 826 826 826 826 826 825 825 825 825 824 824 825 826 826 827 828 827 827 828 828 828 829 830 830 829 828 829
799 801 803 805 807 808 810 811 812 813 814 815 816 818 820 821 822 823 824 825 825 826 826 826 826 826 826 826 826 827 827 827 827 827 827 827 827 827 827 827 827 827 827 826 826 826 826 826 826 827 828 828 827 828 828 828 828 829 830 830 829 829
798 800 802 804 806 807 809 810 811 812 813 815 816 818 819 821 822 823 824 825 825 826 826 826 827 827 827 827 827 827 828 828 828 828 828 828 828 827 827 827 827 828 828 828 828 828 828 828 828 828 828 828 828 828 828 828 828 828 829 830 830 829
796 799 800 802 805 806 808 809 810 811 812 814 816 817 819 820 821 823 823 824 825 826 826 827 827 827 828 828 828 828 828 828 828 828 828 828 828 828 828 828 828 828 829 829 829 829 829 829 830 830 829 829 829 828 827 827 828 828 828 828 828 828
794 797 799 800 803 805 807 808 809 810 812 813 815 816 818 819 820 822 823 824 825 825 826 827 827 828 828 829 829 829 829 829 829 829 829 829 829 829 829 829 829 829 829 829 830 830 830 830 831 831 830 830 830 830 829 828 829 830 829 828 827 826
793 795 797 799 801 804 805 807 808 809 811 812 814 815 817 818 819 821 822 823 824 825 826 827 827 828 828 829 829 829 830 830 830 830 830 830 830 830 830 830 830 830 830 830 830 830 831 831 831 831 831 831 831 831 831 831 831 831 831 829 829 827
791 793 795 797 799 802 804 805 807 808 810 811 813 814 816 817 818 820 821 822 823 824 825 826 827 827 828 829 829 830 830 830 830 831 831 831 831 831 831 831 831 831 831 831 831 831 831 831 831 831 831 831 831 832 832 832 832 832 832 831 830 828
789 791 794 796 798 800 802 804 806 807 809 810 812 813 814 816 817 818 820 821 822 823 824 825 826 827 827 828 829 829 830 830 830 831 831 831 831 831 831 831 831 831 831 832 832 832 832 832 832 832 832 832 832 832 832 832 833 832 832 832 831 829
788 790 792 794 796 798 800 802 804 806 808 809 810 812 813 815 816 817 818 820 821 822 823 824 825 826 827 828 828 829 829 830 830 830 831 831 831 831 831 832 832 832 832 832 832 832 832 832 832 832 832 832 832 832 832 832 832 832 832 832 831 831
788 790 792 794 796 797 799 801 803 804 806 808 809 811 812 813 814 816 817 818 819 821 822 823 824 825 826 827 828 828 829 829 830 830 830 831 831 831 831 832 832 832 832 832 832 832 832 832 833 833 832 833 832 833 832 832 832 832 831 831 831 831
788 790 791 794 796 797 799 800 801 802 804 806 807 809 810 811 812 814 815 817 818 819 820 822 823 824 825 826 827 828 828 829 829 830 830 830 831 831 831 831 832 832 832 832 832 832 832 832 833 833 833 833 832 833 832 832 832 831 831 831 830 830